Simultaneous Nadir Overpasses (SNOs) Predictions

Prediction of SNOs between FY3D and METOP-C Satellite Orbit:

Table of predicted SNOs for the next 14.0 days since TLE Epoch: 1/22/2025
Index Date (FY3D) Time (FY3D) Lat,Lon (FY3D) SZA (FY3D ) Date (METOP-C) Time (METOP-C) Lat,Lon (METOP-C) SZA (METOP-C ) Distance(km) Time Diff (sec)
1 02/04/2025 12:18:26 76.99, -4.22 92.99 02/04/2025 12:19:32 76.94, -1.11 92.93 78.02 66
2 02/04/2025 13:09:07 -76.82, 163.80 87.20 02/04/2025 13:10:17 -76.78, 165.57 87.25 45.08 70
3 02/04/2025 13:59:48 76.65, -28.19 92.62 02/04/2025 14:01:01 76.61, -27.75 92.58 11.90 73
4 02/04/2025 14:50:31 -76.56, 139.45 87.48 02/04/2025 14:51:43 -76.58, 139.47 87.47 2.14 72
5 02/04/2025 15:41:16 76.57, -53.24 92.51 02/04/2025 15:42:24 76.55, -53.33 92.49 3.09 68
6 02/04/2025 16:32:01 -76.57, 114.05 87.50 02/04/2025 16:33:05 -76.56, 114.06 87.51 0.87 64
7 02/04/2025 17:22:46 76.57, -78.64 92.50 02/04/2025 17:23:45 76.57, -78.57 92.50 1.67 59
8 02/04/2025 18:13:31 -76.58, 88.65 87.51 02/04/2025 18:14:27 -76.54, 88.65 87.55 3.80 56
9 02/04/2025 19:04:16 76.58,-104.04 92.48 02/04/2025 19:05:07 76.55,-103.99 92.46 3.25 51
10 02/04/2025 19:55:00 -76.54, 63.42 87.57 02/04/2025 19:55:48 -76.57, 63.40 87.54 3.17 48
11 02/04/2025 20:45:45 76.54,-129.27 92.42 02/04/2025 20:46:29 76.53,-129.40 92.41 3.61 44
12 02/04/2025 21:36:30 -76.55, 38.02 87.59 02/04/2025 21:37:10 -76.55, 37.99 87.59 0.93 40
13 02/04/2025 22:27:15 76.55,-154.67 92.41 02/04/2025 22:27:50 76.56,-154.65 92.42 1.13 35
14 02/04/2025 23:18:00 -76.56, 12.62 87.60 02/04/2025 23:18:32 -76.53, 12.58 87.63 3.04 32
15 02/05/2025 00:08:45 76.56, 179.93 92.40 02/05/2025 00:09:12 76.54, 179.94 92.38 2.03 27
16 02/05/2025 00:59:30 -76.56, -12.78 87.61 02/05/2025 00:59:53 -76.56, -12.67 87.62 2.87 23
17 02/05/2025 01:50:15 76.56, 154.53 92.38 02/05/2025 01:50:33 76.56, 154.70 92.38 4.27 18
18 02/05/2025 02:40:59 -76.53, -38.00 87.67 02/05/2025 02:41:15 -76.54, -38.08 87.66 2.32 16
19 02/05/2025 03:31:44 76.53, 129.30 92.32 02/05/2025 03:31:55 76.55, 129.28 92.34 1.98 11



Historial Predications of SNOs between FY3D and METOP-C
